Wind_Speed
11 10 9 8 6 7 6 5 10 13 13 11 11 10 10 11 11 11 11 10 9 9 10 9 9 9 8 8 7 7 6 6 6 5 5 5 4 4 4 4 4 4 4 3 3 3 3 4 4
11 10 9 7 6 7 9 11 14 15 16 13 12 12 11 11 11 12 12 11 10 11 11 10 10 10 9 9 9 9 8 8 7 6 6 6 5 5 4 4 4 4 4 3 3 3 3 3 3
11 10 9 7 6 5 10 16 19 17 15 14 13 12 12 12 12 13 13 13 10 11 12 12 11 11 10 10 10 10 10 9 9 8 8 7 6 6 6 5 5 5 4 4 3 3 3 3 2
10 9 8 6 5 7 14 17 18 18 16 15 14 13 12 13 13 13 13 13 12 11 12 12 12 12 11 11 11 10 10 10 10 10 9 9 8 7 7 7 7 6 6 5 5 4 4 4 3
9 7 8 7 7 12 16 19 17 17 16 15 16 16 14 13 13 11 12 13 13 12 13 13 13 12 12 12 12 12 11 12 11 11 11 10 9 9 8 8 8 8 7 7 7 6 6 6 5
9 7 7 7 9 15 19 19 16 16 16 17 17 16 14 13 13 12 13 14 13 13 14 14 14 14 14 13 13 13 12 12 12 12 11 11 11 10 10 10 10 9 9 9 9 8 7 7 7
8 6 5 6 12 17 19 20 17 17 18 18 17 15 13 12 12 13 14 14 14 14 15 15 16 15 15 15 15 14 13 14 14 13 13 12 12 11 11 11 11 12 11 12 11 10 10 9 9
7 5 4 5 12 15 17 18 17 18 18 16 17 16 15 13 13 13 14 15 14 14 16 16 16 16 17 16 16 15 15 15 14 14 14 14 13 12 12 12 13 13 13 13 13 13 12 11 11
6 5 4 6 13 16 17 18 18 18 18 17 17 16 14 14 14 14 15 15 15 15 16 16 17 17 18 18 17 17 17 16 15 14 14 14 14 13 13 13 14 14 14 15 15 15 14 14 13
7 7 7 11 17 17 17 18 18 19 18 18 16 14 13 14 15 15 16 16 15 16 16 17 18 18 18 18 18 17 17 17 16 15 15 15 15 14 14 15 14 15 15 15 16 16 16 16 15
8 9 11 13 15 16 16 16 17 18 18 18 17 15 15 15 15 16 17 17 16 17 17 18 18 17 17 18 17 17 17 16 16 16 15 15 15 14 14 14 14 15 16 16 17 17 17 17 17
10 11 12 13 14 15 15 15 16 17 18 17 15 15 14 15 15 16 16 14 14 15 15 15 16 15 16 17 16 16 17 16 16 16 16 16 15 14 15 14 14 15 16 16 17 18 17 18 18
12 13 13 14 15 15 15 15 16 16 16 16 16 14 14 13 13 13 14 14 15 14 14 14 16 16 15 15 15 16 17 17 17 16 16 16 15 15 15 14 14 14 13 15 16 16 16 17 17
11 12 13 13 13 15 15 14 14 14 15 15 14 13 12 11 11 12 11 12 12 13 13 14 14 13 14 14 14 15 16 16 16 15 15 14 14 13 13 12 13 13 13 14 14 14 15 16 16
10 12 13 14 14 16 17 14 12 13 13 14 13 12 11 10 10 10 10 10 11 12 13 14 14 12 12 13 14 14 14 14 14 13 13 12 12 12 12 12 13 13 13 13 14 13 14 16 16
11 13 13 13 14 16 17 15 12 12 12 12 11 10 9 9 9 8 8 9 9 10 11 12 12 11 11 12 12 13 13 13 13 13 13 12 12 12 12 12 13 13 13 13 14 14 14 14 15
12 14 13 13 15 15 16 14 13 13 12 12 10 9 8 9 8 7 7 7 8 9 9 10 10 11 11 10 10 11 11 11 11 12 12 12 12 11 12 12 12 13 13 13 14 14 15 15 15
11 12 12 14 14 15 14 14 13 12 11 11 10 9 8 8 7 6 6 6 7 7 7 8 8 9 9 9 9 10 10 10 10 10 11 11 11 11 11 11 13 13 13 14 14 14 14 15 15
10 11 12 13 13 13 13 12 11 11 11 11 10 8 8 7 6 5 5 5 5 4 4 4 5 6 7 7 7 8 9 8 8 9 9 9 10 10 10 11 12 12 13 13 13 14 14 14 15
11 11 11 10 10 11 12 10 9 10 10 9 9 7 7 5 5 4 4 3 4 3 3 4 4 4 5 6 5 5 6 7 7 8 8 8 9 9 9 10 10 11 11 12 12 13 13 13 14
12 12 10 9 9 9 10 9 9 10 10 10 9 7 6 5 3 3 3 2 2 1 2 2 2 3 4 4 5 5 5 5 5 6 7 7 8 8 8 8 9 9 10 11 11 12 12 13 14
12 10 10 10 9 8 9 10 10 10 9 9 8 7 5 4 2 2 2 1 1 1 1 1 1 2 3 4 4 4 3 4 4 5 5 6 6 6 7 7 8 9 9 10 10 11 12 12 13
12 11 11 10 10 10 10 10 12 11 10 8 6 5 3 3 2 2 2 1 1 1 1 0 0 1 1 2 2 2 2 3 3 3 4 5 5 5 6 7 8 8 9 10 10 10 11 11 12
14 12 12 12 12 12 9 9 12 10 9 8 6 4 2 2 1 1 2 2 2 2 2 2 2 3 3 2 2 1 0 1 1 2 2 3 4 4 5 6 7 8 8 8 9 9 10 10 11
14 12 13 12 10 10 8 9 11 9 8 8 7 4 3 2 1 0 1 1 2 2 2 3 3 3 3 3 2 2 1 1 2 2 2 3 3 4 5 6 7 7 8 8 8 9 10 11 11
13 12 13 13 12 12 10 8 7 8 7 8 7 5 3 3 2 1 1 1 1 1 1 2 2 2 2 2 2 2 1 2 2 2 2 3 4 5 5 6 7 8 8 8 9 10 10 11 12
14 13 12 13 14 13 10 8 6 5 6 6 6 5 4 4 3 2 2 1 0 1 1 1 1 1 1 1 1 1 1 1 2 2 3 4 4 5 6 7 8 8 9 9 10 10 11 12 12
13 13 12 13 14 11 9 8 7 5 6 5 6 5 4 4 4 3 3 2 2 2 1 1 1 1 1 1 1 1 1 2 2 3 4 4 5 6 7 8 9 9 10 10 10 11 12 13 13
15 15 15 14 15 12 11 10 9 8 7 6 5 5 5 5 4 4 4 4 3 3 2 2 2 2 2 2 2 2 3 3 3 4 4 5 6 7 8 9 9 10 10 11 11 12 13 13 14
18 17 16 16 15 13 12 12 9 8 8 6 7 6 6 6 6 5 5 5 5 4 4 4 3 3 3 3 3 3 4 4 4 5 5 6 7 8 9 9 10 10 11 11 12 13 13 14 15
Wind_Direction
342 341 341 344 355 3 344 303 288 296 297 299 293 288 284 277 267 267 269 265 247 239 230 229 228 228 234 239 241 239 237 237 232 225 219 213 210 204 195 189 178 169 163 154 142 133 124 115 113
337 334 334 337 347 358 317 294 294 301 298 298 293 286 284 277 277 278 279 268 249 242 234 230 230 229 235 241 243 243 243 241 238 233 228 225 222 222 220 215 204 198 191 184 177 165 155 143 129
334 330 333 338 356 341 294 287 293 302 300 294 288 284 282 283 278 275 273 265 251 243 236 232 230 230 236 241 243 244 245 243 241 236 232 231 231 231 232 226 218 215 212 208 205 201 191 184 172
334 334 337 349 351 284 284 289 295 300 299 292 286 285 281 281 277 270 267 259 248 238 233 232 232 234 238 240 240 241 243 241 242 240 237 238 237 237 238 235 232 230 229 226 224 223 218 215 210
326 336 342 350 319 287 288 292 292 292 290 289 291 288 288 281 276 270 266 260 249 240 235 234 235 236 238 237 239 240 240 241 242 242 240 240 240 239 241 242 243 241 239 239 238 236 232 229 229
321 342 343 336 298 282 287 295 295 290 288 292 290 287 283 279 273 267 265 259 252 243 239 234 235 236 238 237 239 238 239 242 242 243 241 241 242 243 245 247 249 249 246 244 245 244 238 235 236
319 336 327 311 286 283 288 293 293 288 285 286 287 284 283 276 271 266 265 261 257 247 243 239 236 236 237 238 239 240 242 244 241 242 242 243 244 246 249 251 253 250 249 245 244 245 242 241 241
321 311 295 289 281 284 287 291 295 294 289 285 285 286 281 276 271 266 263 264 259 249 245 244 241 238 237 238 239 241 245 246 243 243 244 244 246 250 253 254 255 253 250 247 244 244 245 245 245
316 305 301 275 271 277 284 291 298 298 291 285 281 282 278 276 270 267 263 264 259 254 249 246 243 240 238 237 238 241 245 245 243 244 246 248 250 254 257 257 256 254 251 249 247 245 246 248 248
300 294 289 272 273 278 286 294 300 300 298 293 284 276 279 278 274 269 266 261 255 254 251 250 245 241 235 237 238 240 243 243 243 243 245 249 254 257 260 260 260 256 252 251 250 249 248 248 248
293 285 281 279 284 290 294 299 299 298 294 291 289 284 280 276 274 270 265 261 257 255 256 255 247 240 239 239 238 238 240 242 244 244 245 250 254 258 260 260 261 259 253 252 253 252 250 248 248
302 295 294 293 293 298 300 300 297 295 293 286 291 290 280 275 272 272 268 258 252 252 252 250 246 243 242 241 242 241 240 243 246 246 247 250 254 259 263 264 266 264 257 254 255 252 251 251 249
304 306 305 305 303 306 307 305 299 295 292 292 290 288 281 273 270 272 268 263 252 249 253 254 248 244 244 245 244 243 245 247 249 250 250 252 257 262 265 267 268 265 261 260 257 255 253 255 254
301 300 306 308 306 314 316 312 303 300 294 294 291 285 281 273 273 276 269 264 253 252 252 246 245 242 244 248 250 248 248 250 253 253 257 256 258 263 266 267 267 265 263 263 260 259 256 255 254
299 301 301 305 309 319 321 318 310 304 302 300 295 289 283 276 277 280 270 261 259 257 254 248 243 244 247 248 247 250 249 250 251 252 256 258 261 264 265 268 269 268 266 263 263 266 263 257 256
295 297 302 313 310 315 321 322 312 308 308 305 304 299 288 288 288 286 272 268 263 259 253 247 241 242 244 244 243 248 248 247 248 251 255 256 263 267 267 269 273 272 269 267 266 263 265 264 262
314 322 321 314 311 310 319 321 316 321 316 313 316 312 303 296 295 291 286 281 267 258 253 246 246 244 239 238 238 243 247 248 250 255 257 257 263 264 263 268 273 273 271 272 272 268 268 268 266
311 311 307 302 302 302 310 316 315 319 317 318 320 320 315 306 301 302 296 294 273 253 249 242 241 240 233 234 240 245 250 254 256 258 258 260 264 265 267 273 275 275 274 273 274 274 274 272 269
282 281 282 288 296 297 304 315 321 322 318 319 320 319 319 316 308 307 303 299 290 269 254 242 239 238 237 238 242 244 248 253 255 260 263 265 270 275 275 278 279 276 276 276 278 279 279 276 274
271 271 275 287 295 298 303 316 323 323 320 319 323 324 326 322 313 306 302 301 304 279 251 249 246 242 239 234 236 244 251 257 263 267 270 275 280 282 281 282 284 282 281 281 281 281 280 277 276
266 274 282 291 289 291 303 310 316 317 320 318 325 327 325 327 323 322 306 296 303 283 246 254 242 231 234 238 238 242 252 261 265 272 279 282 286 286 289 288 288 289 288 286 286 286 284 282 280
267 275 276 279 276 283 298 305 308 309 310 314 320 324 327 336 337 331 332 318 308 298 281 258 242 227 232 237 237 234 249 271 277 290 292 290 291 292 298 300 300 298 295 292 292 290 289 288 285
257 265 266 264 266 270 277 289 295 296 304 308 312 318 323 345 10 20 32 65 70 68 81 77 170 187 183 198 208 229 251 279 288 296 299 300 302 304 308 311 310 307 305 303 300 298 296 295 291
257 257 255 256 258 264 279 285 288 291 308 313 313 304 312 319 356 49 69 85 83 80 89 92 106 127 137 145 138 131 140 319 313 316 316 313 315 315 315 316 314 313 314 313 311 307 305 304 300
254 259 268 281 281 281 283 277 288 297 304 303 310 302 304 292 268 221 99 93 84 89 96 99 109 109 105 99 96 95 70 21 353 341 339 336 334 329 325 324 326 323 319 319 318 315 312 310 308
251 253 258 270 283 281 276 263 283 303 301 294 289 286 271 261 244 225 194 132 105 105 117 122 112 106 101 91 74 65 30 356 345 338 339 341 340 336 335 334 332 328 323 321 320 319 316 313 310
245 246 249 260 269 280 276 257 246 271 289 293 281 274 256 246 235 226 213 203 200 179 159 157 157 141 133 120 82 45 353 337 334 327 322 326 332 335 333 333 332 329 326 323 321 319 317 315 313
242 248 245 251 265 277 283 260 251 269 292 294 287 277 256 247 244 244 239 241 236 228 230 224 201 210 220 239 307 311 302 312 322 324 323 325 329 332 334 333 331 330 327 325 323 323 322 320 316
236 232 230 238 251 267 275 279 278 281 278 282 280 276 261 249 247 247 252 252 248 245 246 249 240 235 242 261 277 281 287 295 307 315 319 322 325 329 330 330 329 329 329 327 325 324 322 320 318
238 234 233 237 241 249 263 271 277 290 287 288 276 268 264 254 250 250 254 258 257 254 256 257 257 254 256 262 272 284 291 296 302 310 315 319 323 326 327 328 327 327 327 326 325 323 322 321 320
Height
5897 5896 5895 5895 5895 5894 5892 5891 5891 5890 5888 5887 5886 5885 5884 5882 5881 5883 5880 5881 5883 5883 5884 5885 5886 5887 5888 5888 5889 5890 5890 5890 5891 5891 5891 5891 5892 5892 5892 5893 5893 5894 5894 5894 5895 5895 5896 5896 5896
5896 5895 5894 5894 5893 5892 5893 5889 5887 5887 5886 5885 5884 5882 5881 5879 5879 5879 5878 5879 5881 5881 5883 5883 5884 5885 5886 5887 5888 5889 5889 5890 5890 5890 5891 5891 5892 5892 5892 5893 5893 5894 5894 5895 5895 5896 5896 5897 5897
5895 5894 5893 5893 5892 5892 5892 5889 5886 5885 5884 5882 5881 5880 5879 5878 5877 5877 5877 5877 5879 5880 5881 5882 5882 5884 5885 5885 5886 5887 5888 5889 5889 5890 5890 5891 5891 5892 5892 5892 5893 5894 5894 5895 5895 5896 5896 5897 5897
5893 5893 5892 5891 5891 5892 5891 5888 5885 5883 5881 5879 5877 5877 5874 5876 5876 5875 5875 5875 5877 5877 5878 5879 5881 5882 5883 5884 5885 5886 5887 5888 5888 5889 5889 5890 5890 5891 5892 5892 5892 5893 5894 5895 5895 5896 5896 5897 5897
5892 5892 5891 5889 5890 5890 5888 5886 5884 5882 5879 5876 5874 5873 5873 5873 5873 5873 5873 5873 5874 5875 5876 5877 5879 5880 5881 5882 5883 5884 5885 5886 5887 5888 5888 5889 5889 5890 5891 5891 5892 5893 5893 5894 5895 5895 5896 5896 5897
5891 5890 5890 5889 5890 5889 5886 5884 5881 5879 5876 5873 5872 5870 5871 5871 5871 5871 5871 5871 5872 5873 5872 5874 5876 5877 5878 5879 5881 5882 5883 5884 5885 5886 5887 5887 5888 5889 5889 5890 5891 5892 5892 5893 5894 5895 5895 5896 5896
5889 5888 5888 5889 5889 5887 5884 5881 5878 5876 5873 5871 5868 5866 5867 5867 5868 5868 5868 5868 5869 5870 5870 5872 5873 5875 5876 5877 5879 5880 5881 5882 5883 5884 5885 5886 5887 5887 5888 5889 5890 5890 5891 5892 5893 5894 5894 5895 5896
5886 5887 5886 5887 5887 5884 5881 5878 5875 5873 5870 5869 5867 5866 5865 5865 5866 5866 5866 5866 5866 5866 5867 5869 5871 5872 5873 5875 5876 5878 5879 5880 5881 5882 5883 5884 5885 5886 5886 5887 5887 5888 5889 5890 5891 5892 5893 5894 5895
5885 5886 5884 5885 5884 5881 5879 5876 5872 5870 5868 5867 5866 5863 5862 5863 5863 5863 5863 5863 5863 5864 5865 5866 5867 5868 5870 5872 5873 5875 5876 5878 5879 5880 5881 5882 5883 5884 5884 5884 5884 5886 5887 5888 5889 5890 5891 5892 5893
5883 5883 5882 5882 5880 5878 5876 5873 5870 5868 5865 5863 5862 5860 5859 5860 5860 5860 5860 5860 5860 5861 5862 5863 5864 5865 5866 5869 5870 5872 5874 5875 5876 5877 5878 5880 5881 5881 5882 5882 5882 5883 5884 5885 5886 5888 5889 5890 5891
5881 5881 5880 5878 5877 5875 5873 5871 5868 5866 5863 5860 5857 5856 5857 5858 5857 5857 5856 5856 5857 5858 5859 5860 5861 5862 5863 5865 5867 5869 5870 5872 5873 5874 5876 5877 5878 5879 5879 5880 5880 5881 5882 5883 5884 5885 5886 5887 5889
5879 5878 5876 5875 5874 5872 5870 5868 5866 5863 5861 5856 5854 5854 5854 5854 5854 5854 5853 5853 5854 5854 5855 5856 5857 5859 5860 5862 5864 5866 5868 5870 5871 5872 5873 5874 5876 5877 5877 5877 5877 5878 5879 5880 5881 5882 5883 5884 5885
5876 5875 5874 5872 5871 5869 5867 5865 5863 5860 5858 5855 5852 5851 5851 5851 5851 5851 5851 5850 5849 5850 5853 5854 5855 5857 5859 5860 5862 5864 5866 5867 5868 5870 5871 5872 5873 5874 5874 5875 5875 5875 5876 5877 5878 5879 5880 5881 5882
5874 5872 5871 5869 5867 5866 5864 5862 5860 5856 5854 5853 5851 5848 5848 5848 5848 5848 5848 5848 5845 5848 5850 5851 5853 5855 5856 5858 5859 5861 5863 5865 5866 5867 5868 5869 5871 5871 5872 5872 5872 5873 5873 5874 5875 5876 5877 5878 5879
5871 5869 5868 5866 5864 5863 5861 5859 5856 5853 5851 5850 5849 5847 5847 5846 5846 5846 5846 5846 5846 5846 5848 5849 5851 5852 5854 5855 5857 5859 5861 5863 5864 5865 5866 5867 5868 5869 5869 5870 5870 5870 5871 5871 5872 5873 5874 5875 5876
5867 5866 5864 5863 5861 5860 5860 5857 5854 5851 5849 5848 5847 5846 5845 5845 5845 5844 5844 5845 5845 5845 5846 5847 5849 5851 5852 5854 5856 5857 5859 5860 5862 5863 5864 5865 5866 5866 5867 5867 5868 5868 5868 5869 5869 5870 5871 5871 5872
5865 5863 5862 5862 5861 5859 5858 5855 5853 5850 5848 5847 5846 5845 5844 5844 5844 5843 5843 5844 5844 5844 5845 5846 5847 5849 5851 5853 5854 5856 5857 5858 5859 5860 5862 5863 5863 5864 5864 5865 5865 5865 5866 5866 5866 5867 5867 5868 5869
5864 5864 5863 5862 5860 5858 5856 5854 5851 5849 5848 5846 5845 5844 5843 5843 5843 5842 5842 5842 5842 5842 5844 5845 5846 5848 5849 5851 5852 5854 5855 5856 5857 5858 5859 5860 5861 5862 5862 5863 5863 5863 5863 5863 5863 5864 5864 5864 5865
5863 5863 5862 5861 5859 5857 5855 5853 5851 5849 5847 5846 5845 5844 5843 5842 5842 5841 5841 5841 5840 5841 5843 5843 5845 5846 5847 5849 5851 5852 5853 5854 5855 5857 5857 5858 5859 5859 5860 5860 5860 5860 5860 5860 5861 5861 5861 5861 5862
5861 5860 5859 5859 5857 5855 5854 5852 5850 5848 5847 5845 5844 5843 5842 5842 5841 5841 5841 5841 5841 5841 5842 5843 5844 5845 5846 5848 5849 5850 5851 5853 5854 5855 5855 5856 5856 5857 5857 5858 5858 5858 5858 5858 5858 5858 5858 5858 5858
5858 5858 5857 5856 5856 5854 5853 5851 5849 5848 5846 5845 5844 5843 5842 5841 5841 5841 5841 5841 5841 5841 5842 5843 5844 5845 5846 5847 5848 5850 5851 5852 5852 5853 5853 5854 5854 5854 5855 5855 5856 5856 5856 5855 5855 5855 5855 5855 5855
5855 5855 5855 5854 5854 5852 5852 5850 5848 5847 5846 5845 5843 5842 5841 5841 5841 5841 5841 5841 5842 5842 5842 5843 5843 5844 5845 5847 5848 5849 5850 5851 5852 5852 5852 5853 5853 5853 5853 5854 5854 5853 5853 5853 5853 5852 5852 5852 5852
5852 5853 5852 5852 5851 5850 5848 5848 5847 5845 5844 5843 5843 5842 5841 5841 5841 5841 5841 5842 5842 5842 5842 5843 5843 5844 5845 5846 5847 5848 5849 5850 5851 5851 5851 5851 5852 5852 5852 5852 5852 5852 5851 5850 5850 5850 5849 5849 5849
5849 5849 5848 5847 5847 5846 5845 5846 5845 5841 5843 5843 5841 5841 5842 5842 5842 5842 5842 5842 5843 5843 5843 5843 5844 5845 5846 5846 5847 5848 5849 5850 5850 5850 5851 5851 5851 5851 5851 5851 5851 5850 5849 5849 5848 5847 5847 5846 5846
5846 5847 5846 5844 5843 5842 5843 5844 5843 5841 5842 5842 5842 5841 5842 5842 5842 5842 5843 5843 5843 5843 5844 5844 5845 5845 5846 5846 5847 5848 5849 5849 5850 5850 5851 5851 5851 5850 5850 5850 5849 5849 5848 5847 5847 5846 5845 5844 5843
5842 5844 5844 5844 5842 5841 5840 5840 5842 5841 5840 5841 5841 5841 5842 5842 5842 5843 5843 5843 5843 5844 5844 5845 5845 5846 5846 5847 5848 5848 5849 5849 5850 5850 5850 5850 5850 5850 5849 5849 5848 5848 5847 5846 5845 5844 5843 5842 5841
5839 5840 5842 5842 5840 5839 5837 5838 5838 5839 5840 5840 5841 5841 5841 5842 5842 5842 5843 5843 5843 5844 5844 5845 5845 5846 5847 5847 5848 5848 5849 5849 5850 5850 5850 5850 5850 5849 5849 5848 5847 5846 5845 5844 5843 5842 5841 5840 5839
5836 5838 5839 5839 5838 5837 5836 5834 5834 5836 5839 5840 5840 5840 5840 5841 5841 5842 5842 5843 5843 5844 5844 5845 5845 5846 5847 5847 5848 5848 5849 5849 5849 5850 5850 5849 5849 5848 5848 5847 5846 5845 5844 5843 5842 5841 5839 5838 5836
5832 5834 5835 5836 5837 5836 5835 5836 5834 5835 5837 5838 5839 5840 5840 5840 5841 5841 5842 5842 5843 5843 5844 5844 5845 5846 5846 5847 5847 5848 5848 5849 5849 5849 5849 5848 5848 5847 5847 5846 5845 5844 5843 5841 5840 5839 5837 5835 5834
5827 5829 5831 5833 5833 5834 5833 5835 5833 5833 5835 5836 5838 5839 5839 5839 5840 5840 5841 5841 5842 5842 5843 5844 5844 5845 5845 5846 5846 5847 5848 5848 5848 5848 5848 5847 5847 5846 5845 5844 5843 5842 5841 5840 5838 5837 5835 5833 5831